Regional Weather Roundup
Issued by NWS

Home | Current Version | Previous Version | Text Only | Print | Product List | Glossary On
Versions: 1 2 3 4 5 6 7 8 9 10 11 12 13 14 15 16 17 18 19 20 21 22 23 24 25 26 27 28 29 30 31 32 33 34 35 36 37 38 39 40 41 42 43 44 45 46 47 48 49 50
000
ASUS43 KBIS 270520
RWRND

NORTH DAKOTA REGIONAL WEATHER ROUNDUP
NATIONAL WEATHER SERVICE BISMARCK ND
1100 PM CST FRI DEC 26 2014

NOTE: "FAIR" INDICATES FEW OR NO CLOUDS BELOW 12,000 FEET WITH NO
SIGNIFICANT WEATHER AND/OR OBSTRUCTIONS TO VISIBILITY.


NDZ001>003-009>011-017-270600-
NORTHWEST NORTH DAKOTA

CITY           SKY/WX    TMP DP  RH WIND       PRES   REMARKS
WILLISTON      CLOUDY    20  16  84 CALM      30.09F
MINOT          CLOUDY    10   5  80 SE7       30.12F WCI  -1
MINOT AFB      CLOUDY    10   8  90 S6        30.12F WCI   0
$$

NDZ018>021-031>035-040>046-270600-
SOUTHWEST NORTH DAKOTA

CITY           SKY/WX    TMP DP  RH WIND       PRES   REMARKS
BISMARCK       MOCLDY    -1  -5  82 CALM      30.19R FOG
DICKINSON      MOCLDY    11   6  81 S6        30.08S WCI   1
GARRISON         N/A     12   9  87 CALM      30.12F
HETTINGER ARPT CLEAR      5   1  83 S5        30.12F WCI  -4
$$

NDZ004>008-012>016-024-026-027-054-270600-
NORTHEAST NORTH DAKOTA

CITY           SKY/WX    TMP DP  RH WIND       PRES   REMARKS
GRAND FORKS    CLOUDY     6   3  87 N5        30.23S WCI  -3
GRND FRKS AFB  FLURRIES   0  -2  92 NW5       30.23F WCI -10
DEVILS LAKE    PTCLDY    -4 -11  71 CALM      30.16S
$$

NDZ022-023-025-028>030-036>039-047>053-270600-
SOUTHEAST NORTH DAKOTA

CITY           SKY/WX    TMP DP  RH WIND       PRES   REMARKS
FARGO          PTCLDY     8   3  80 N7        30.22F WCI  -3
JAMESTOWN      CLEAR      3  -1  83 NW5       30.18S WCI  -6
$$



USA.gov is the U.S. government's official web portal to all federal, state and local government web resources and services.